Date,TemperatureHighF,TemperatureAvgF,TemperatureLowF,DewpointHighF,DewpointAvgF,DewpointLowF,HumidityHigh,HumidityAvg,HumidityLow,PressureMaxIn,PressureMinIn,WindSpeedMaxMPH,WindSpeedAvgMPH,GustSpeedMaxMPH,PrecipitationSumIn
2012-1-1,50,39,30,36,23,12,90,56,30,30.43,29.71,26,12,39,0.02
2012-1-2,31,26,19,18,12,7,66,54,40,30.60,30.42,23,8,32,0.00
2012-1-3,40,27,11,16,11,7,89,54,27,30.61,30.11,9,2,15,0.00
2012-1-4,48,38,32,33,26,16,74,62,47,30.25,30.07,11,2,19,0.00
2012-1-5,61,47,34,35,31,26,74,57,37,30.19,29.85,7,1,12,0.00
2012-1-6,63,49,41,37,34,30,70,55,37,29.99,29.76,11,3,16,0.00
2012-1-7,47,39,31,31,28,25,78,65,47,30.29,29.98,6,1,13,0.00
2012-1-8,43,35,27,33,29,24,92,81,63,30.42,30.29,5,0,7,0.00
2012-1-9,49,35,22,35,28,21,96,78,47,30.35,30.14,6,1,11,0.00
2012-1-10,58,41,29,34,28,25,86,62,33,30.16,29.81,6,1,14,0.00
2012-1-11,56,39,27,35,28,22,84,65,34,29.80,29.60,12,2,24,0.00
2012-1-12,27,17,14,22,13,9,89,83,76,30.00,29.79,23,8,28,0.00
2012-1-13,20,15,11,11,9,6,84,76,65,30.22,30.00,14,4,21,0.00
2012-1-14,30,23,11,23,17,7,90,80,72,30.35,30.07,6,2,10,0.00
2012-1-15,49,35,20,32,25,18,92,71,46,30.37,30.00,16,4,23,0.00
2012-1-16,69,51,41,52,41,32,83,70,48,30.00,29.66,10,3,23,0.00
2012-1-17,44,28,17,39,23,9,95,80,67,30.45,29.66,15,6,26,0.33
2012-1-18,33,22,8,20,13,6,91,70,49,30.46,29.97,9,2,17,0.00
2012-1-19,31,21,12,23,12,3,79,67,58,30.25,29.94,13,3,18,0.00
2012-1-20,24,19,11,20,12,4,89,76,60,30.26,29.95,14,3,15,0.00
2012-1-21,28,23,17,26,19,15,92,83,73,30.33,30.03,13,3,17,0.00
2012-1-22,49,40,28,48,39,26,98,95,90,30.05,29.42,14,5,18,0.05
2012-1-23,50,35,28,48,30,24,97,81,71,30.12,29.41,22,6,41,0.03
2012-1-24,42,31,22,30,25,21,94,80,57,30.38,30.13,7,1,14,0.00
2012-1-25,38,33,30,33,30,26,93,87,76,30.35,30.06,14,3,15,0.00
2012-1-26,43,37,33,38,34,31,97,89,73,30.05,29.79,11,2,17,0.00
2012-1-27,40,34,26,32,30,24,97,86,63,30.11,29.86,11,2,15,0.00
2012-1-28,43,33,25,32,24,19,96,71,39,30.35,30.11,11,4,18,0.06
2012-1-29,42,36,32,23,18,12,62,50,30,30.32,30.20,10,4,16,0.00
2012-1-30,68,50,34,44,33,19,72,55,34,30.21,29.93,13,3,18,0.00
2012-1-31,65,55,47,53,46,38,88,73,64,30.05,29.86,12,2,22,0.00
2012-2-1,56,44,34,42,38,33,95,79,54,30.22,30.05,5,0,8,0.00
2012-2-2,63,47,31,38,34,30,96,65,34,30.35,30.22,8,1,9,0.00
2012-2-3,53,47,43,43,38,33,93,71,49,30.35,30.13,17,5,25,0.53
2012-2-4,44,41,39,42,40,38,97,96,93,30.23,30.09,16,4,22,0.28
2012-2-5,47,37,30,38,34,29,97,88,65,30.39,30.23,7,2,13,0.05
2012-2-6,44,34,29,34,30,28,96,87,64,30.37,30.23,9,2,13,0.00
2012-2-7,35,31,28,32,30,27,97,93,87,30.45,30.26,7,1,11,0.00
2012-2-8,34,30,24,31,27,20,96,86,71,30.54,30.44,6,2,10,0.00
2012-2-9,35,28,20,30,24,16,92,82,72,30.45,30.18,4,0,8,0.01
2012-2-10,37,30,19,34,25,12,90,80,70,30.42,30.07,16,4,21,0.00
2012-2-11,28,19,12,12,5,1,76,56,31,30.68,30.42,16,6,24,0.00
2012-2-12,37,23,12,12,6,2,69,49,25,30.67,30.32,16,3,16,0.00
2012-2-13,32,30,26,30,22,10,96,76,42,30.32,29.89,9,2,14,0.00
2012-2-14,39,34,31,33,32,30,97,91,78,30.04,29.87,6,1,11,0.13
2012-2-15,45,39,32,42,37,30,97,92,81,30.05,29.96,6,2,11,0.14
2012-2-16,49,40,33,41,33,28,98,78,45,30.28,30.01,10,2,16,0.00
2012-2-17,57,42,30,36,31,28,89,68,41,30.26,30.10,9,2,17,0.00
2012-2-18,44,36,28,30,26,24,83,68,49,30.28,30.18,11,2,14,0.00
2012-2-19,45,35,28,25,22,18,79,61,36,30.24,30.16,8,2,10,0.00
2012-2-20,48,38,27,32,25,21,83,61,41,30.27,29.79,14,6,19,0.00
2012-2-21,53,44,38,40,33,26,90,67,37,29.88,29.69,13,4,25,0.00
2012-2-22,56,46,37,36,32,29,73,57,42,29.78,29.49,12,2,23,0.00
2012-2-23,64,48,41,45,40,32,91,73,43,29.56,29.30,25,4,28,0.08
2012-2-24,41,37,33,34,27,20,92,70,48,30.20,29.55,21,9,31,0.01
2012-2-25,41,30,24,25,18,14,76,60,38,30.39,30.19,17,6,26,0.00
2012-2-26,64,48,31,32,27,18,63,46,28,30.25,30.00,19,5,28,0.00
2012-2-27,46,36,31,31,23,16,79,60,37,30.52,30.18,11,3,14,0.00
2012-2-28,62,46,34,55,35,23,88,65,42,30.47,29.60,17,6,17,0.10
2012-2-29,62,54,38,58,38,29,89,57,36,29.88,29.55,27,8,45,0.01
2012-3-1,60,45,29,36,31,26,85,60,36,29.95,29.59,13,4,19,0.00
2012-3-2,48,38,34,37,34,31,95,85,62,29.88,29.47,23,4,27,0.15
2012-3-3,40,34,27,31,24,20,84,68,52,30.00,29.87,24,6,24,0.00
2012-3-4,40,31,20,30,24,18,92,78,56,30.21,29.92,9,1,16,0.00
2012-3-5,50,36,23,28,24,20,92,65,35,30.46,30.15,9,3,16,0.00
2012-3-6,74,59,43,40,33,27,55,40,18,30.14,29.87,16,6,30,0.00
2012-3-7,70,64,59,56,49,40,78,58,49,29.94,29.85,18,6,30,0.00
2012-3-8,59,40,34,48,31,24,94,73,41,30.49,29.94,14,4,23,0.39
2012-3-9,53,41,33,26,21,12,72,48,21,30.64,30.48,14,2,15,0.00
2012-3-10,66,49,34,33,27,21,66,44,25,30.51,30.25,12,3,18,0.00
2012-3-11,62,52,43,53,40,27,96,67,40,30.27,29.93,13,5,19,0.37
2012-3-12,75,63,54,56,53,51,97,75,43,29.97,29.79,16,4,21,0.00
2012-3-13,82,63,46,57,50,45,98,71,28,30.11,29.97,7,1,10,0.00
2012-3-14,82,74,69,62,62,61,79,66,51,30.00,29.90,5,2,14,0.00
2012-3-15,70,67,64,58,55,54,72,67,62,30.04,29.99,7,3,15,0.00
2012-3-16,80,70,60,65,60,54,87,72,60,30.05,29.95,13,3,20,0.00
2012-3-17,80,67,60,65,60,54,94,78,60,30.03,29.90,9,2,16,0.00
2012-3-18,80,69,58,64,60,56,94,74,54,30.02,29.90,11,4,19,0.00
2012-3-19,82,73,65,66,61,53,92,68,48,29.93,29.72,17,4,23,0.04
2012-3-20,82,69,58,62,57,53,95,69,39,29.98,29.80,22,5,30,0.04
2012-3-21,78,68,59,60,56,53,92,69,43,30.01,29.90,11,3,20,0.00
2012-3-22,74,59,53,62,54,50,96,84,59,30.04,29.91,15,3,22,0.25
2012-3-23,66,57,51,56,52,50,97,85,57,29.98,29.79,8,2,15,0.00
2012-3-24,68,59,51,59,55,49,94,86,70,29.99,29.82,11,2,15,0.00
2012-3-25,75,63,52,60,56,52,98,79,53,30.11,29.99,6,1,12,0.01
2012-3-26,68,59,52,55,50,43,98,72,50,30.22,30.06,13,5,19,0.00
2012-3-27,84,67,54,60,51,42,69,58,38,30.10,29.85,16,5,21,0.00
2012-3-28,78,68,54,59,47,41,81,50,27,30.04,29.90,8,1,12,0.00
2012-3-29,65,56,50,56,48,39,95,78,42,30.08,29.81,15,4,24,0.51
2012-3-30,73,65,54,61,57,50,88,76,61,29.84,29.71,10,3,17,0.00
2012-3-31,76,65,48,62,56,46,93,74,60,29.93,29.74,9,4,12,0.00
2012-4-1,88,73,60,66,58,53,89,64,35,29.75,29.55,11,2,13,0.00
2012-4-2,90,80,72,58,55,53,61,44,30,29.76,29.67,5,2,7,0.00
2012-4-3,80,70,61,63,60,57,87,70,55,29.84,29.75,8,1,11,0.00
2012-4-4,63,58,52,57,50,39,85,75,47,29.88,29.78,12,3,25,0.00
2012-4-5,62,49,43,45,41,36,96,76,41,30.12,29.83,13,2,18,0.82
2012-4-6,61,48,35,41,36,30,82,62,44,30.30,30.10,11,3,13,0.00
2012-4-7,62,53,42,50,44,37,94,72,55,30.32,30.17,8,2,15,0.00
2012-4-8,68,54,37,47,36,25,95,59,24,30.41,30.16,7,1,11,0.00
2012-4-9,69,55,45,38,34,29,69,48,23,30.21,30.07,10,2,22,0.00
2012-4-10,60,49,36,31,26,24,68,42,28,30.27,30.11,13,3,20,0.00
2012-4-11,57,44,31,32,26,23,76,51,32,30.39,30.20,8,2,11,0.00
2012-4-12,65,50,30,37,32,28,94,56,28,30.33,30.11,10,2,14,0.00
2012-4-13,56,51,47,50,45,35,94,81,46,30.12,29.98,17,5,20,0.77
2012-4-14,73,64,54,65,60,49,98,88,72,29.99,29.67,10,3,20,0.67
2012-4-15,72,68,60,66,61,54,94,79,72,29.71,29.53,15,4,21,0.32
2012-4-16,64,56,49,54,45,42,84,65,46,30.25,29.58,20,6,32,0.00
2012-4-17,70,57,43,47,44,40,91,64,38,30.38,30.24,8,1,11,0.00
2012-4-18,76,63,48,55,50,43,91,65,42,30.25,29.97,7,1,15,0.00
2012-4-19,79,66,54,55,51,48,80,60,39,29.99,29.69,14,2,19,0.00
2012-4-20,68,50,43,58,45,40,92,83,58,30.07,29.69,13,4,18,0.03
2012-4-21,59,48,35,44,39,34,98,74,46,30.11,29.98,5,1,9,0.15
2012-4-22,58,48,40,47,41,37,97,79,49,30.19,29.92,12,2,17,0.04
2012-4-23,62,49,35,44,38,33,93,69,44,30.19,29.97,13,2,17,0.00
2012-4-24,81,61,41,57,48,38,93,66,41,29.99,29.61,8,1,15,0.00
2012-4-25,88,72,56,66,60,53,92,69,44,29.64,29.51,6,1,10,0.01
2012-4-26,74,67,57,64,54,41,87,64,43,30.05,29.60,13,3,17,0.00
2012-4-27,59,53,46,42,32,22,72,47,35,30.19,29.86,16,8,29,0.00
2012-4-28,70,62,53,60,53,38,85,72,60,30.08,29.81,13,3,21,0.01
2012-4-29,56,51,46,56,49,45,98,93,84,30.14,29.96,10,2,15,0.90
2012-4-30,63,58,56,60,58,55,99,97,87,30.03,29.89,3,0,7,1.60
2012-5-1,80,62,55,68,60,54,99,93,66,29.98,29.76,9,3,15,0.39
2012-5-2,87,74,67,73,66,64,90,78,49,29.93,29.76,13,2,17,0.00
2012-5-3,85,75,67,72,68,64,92,80,64,29.97,29.81,9,1,19,0.00
2012-5-4,80,71,63,69,66,61,96,85,66,30.01,29.83,13,2,19,0.21
2012-5-5,88,78,67,77,72,66,97,81,66,29.90,29.82,10,2,11,0.00
2012-5-6,89,76,67,76,70,62,97,83,53,29.88,29.74,15,2,20,0.17
2012-5-7,71,65,55,64,62,52,97,89,63,29.98,29.76,10,2,16,0.06
2012-5-8,71,59,51,52,48,42,84,70,36,30.02,29.95,14,2,19,0.00
2012-5-9,69,54,48,50,47,44,89,77,47,30.05,29.95,6,1,15,0.00
2012-5-10,75,58,44,56,49,43,98,76,39,30.04,29.95,4,1,10,0.00
2012-5-11,78,64,53,59,53,48,84,69,47,30.13,30.01,8,1,12,0.00
2012-5-12,71,64,57,62,58,54,93,81,68,30.22,30.13,8,2,13,0.00
2012-5-13,74,63,52,57,50,43,96,67,37,30.25,30.12,13,2,13,0.00
2012-5-14,79,63,48,54,46,38,95,60,26,30.17,30.04,5,0,8,0.00
2012-5-15,83,65,46,59,52,44,95,67,38,30.08,29.92,9,1,16,0.00
2012-5-16,76,65,55,55,50,44,81,60,36,30.08,29.95,11,2,12,0.00
2012-5-17,79,63,50,49,43,36,66,49,23,30.12,29.97,7,2,11,0.00
2012-5-18,87,70,56,64,53,46,73,57,33,30.02,29.88,11,2,15,0.00
2012-5-19,88,76,63,68,61,54,74,61,43,29.99,29.91,8,2,17,0.00
2012-5-20,85,76,63,68,63,54,78,65,51,30.11,29.96,10,2,14,0.08
2012-5-21,74,61,50,54,46,41,90,60,32,30.22,30.10,14,2,17,0.00
2012-5-22,80,63,44,54,48,41,95,62,33,30.11,29.88,5,1,14,0.00
2012-5-23,84,68,56,58,53,48,77,61,39,29.88,29.65,9,3,17,0.00
2012-5-24,91,77,66,68,57,50,74,52,32,29.74,29.52,16,3,24,0.00
2012-5-25,85,75,68,70,65,58,86,70,49,30.00,29.75,12,2,17,0.00
2012-5-26,93,82,71,76,72,67,87,73,54,30.02,29.89,5,1,11,0.00
2012-5-27,93,82,69,73,65,61,86,59,35,29.96,29.77,8,2,14,0.00
2012-5-28,90,81,74,73,66,59,87,62,47,29.81,29.71,9,2,15,0.07
2012-5-29,86,74,61,62,55,45,85,54,26,29.91,29.82,8,2,18,0.00
2012-5-30,80,67,56,52,50,47,76,56,35,30.00,29.84,6,1,9,0.00
2012-5-31,64,58,52,52,49,46,95,75,54,29.96,29.75,10,3,19,0.13
2012-6-1,68,55,47,50,46,42,96,75,39,30.00,29.91,11,3,17,0.00
2012-6-2,79,63,49,58,51,47,93,69,36,29.92,29.79,14,2,19,0.01
2012-6-3,83,70,50,64,57,49,95,67,42,29.92,29.81,4,1,10,0.00
2012-6-4,88,73,60,71,64,58,96,75,51,29.90,29.75,12,2,17,0.00
2012-6-5,82,71,59,59,56,52,95,61,38,29.98,29.89,10,2,14,0.00
2012-6-6,79,69,57,55,52,50,78,56,39,30.08,29.96,11,2,13,0.00
2012-6-7,82,70,51,57,51,47,91,54,33,30.16,30.05,7,1,12,0.00
2012-6-8,88,72,53,60,53,50,95,57,27,30.11,29.92,6,1,13,0.00
2012-6-9,90,77,60,63,58,51,75,53,33,29.95,29.77,8,1,14,0.00
2012-6-10,90,79,69,69,65,59,77,63,47,29.87,29.77,16,3,21,0.00
2012-6-11,80,73,67,71,68,61,98,83,68,29.98,29.73,8,1,17,0.63
2012-6-12,79,68,58,61,51,37,93,59,23,30.15,29.98,8,2,13,0.00
2012-6-13,80,66,52,57,53,47,88,63,40,30.18,30.02,7,2,13,0.00
2012-6-14,90,74,58,61,56,52,82,57,32,30.06,29.88,7,2,16,0.00
2012-6-15,92,76,65,70,62,56,95,64,39,30.01,29.86,14,3,21,0.50
2012-6-16,94,79,69,75,70,67,98,78,43,30.02,29.85,12,1,19,0.61
2012-6-17,89,76,67,74,70,66,99,82,56,29.98,29.76,7,1,10,0.01
2012-6-18,93,82,74,72,69,64,81,66,45,29.80,29.69,11,2,16,0.00
2012-6-19,93,85,76,73,69,66,74,59,50,29.92,29.80,15,3,17,0.00
2012-6-20,93,83,74,72,68,65,76,61,46,29.98,29.85,12,2,15,0.00
2012-6-21,84,76,66,68,64,59,84,67,43,30.02,29.92,14,2,15,0.00
2012-6-22,84,73,59,63,58,52,95,63,34,30.06,29.97,9,1,11,0.00
2012-6-23,86,72,60,68,62,55,92,70,46,30.04,29.90,11,2,15,0.05
2012-6-24,99,80,68,73,66,58,81,62,40,29.98,29.85,16,3,19,0.00
2012-6-25,86,78,68,72,64,50,89,64,40,29.97,29.87,14,4,23,0.00
2012-6-26,86,70,57,58,53,47,78,57,32,30.02,29.88,10,3,16,0.00
2012-6-27,101,81,61,68,59,51,75,51,29,29.95,29.79,6,1,15,0.00
2012-6-28,105,89,72,71,68,65,80,53,31,29.90,29.82,11,2,19,0.00
2012-6-29,104,86,70,70,63,54,83,51,20,29.90,29.74,10,2,19,0.00
2012-6-30,102,85,69,71,68,62,88,58,33,29.85,29.77,13,1,16,0.01
2012-7-1,96,82,73,73,70,67,88,68,41,29.99,29.83,5,1,9,0.02
2012-7-2,102,82,72,72,69,65,91,67,31,29.98,29.88,8,1,20,0.00
2012-7-3,100,84,70,73,69,66,88,63,35,29.95,29.81,7,1,12,0.00
2012-7-4,101,85,74,70,66,59,82,57,25,29.93,29.84,8,1,15,0.00
2012-7-5,103,88,71,70,66,63,79,51,29,29.98,29.88,9,1,13,0.00
2012-7-6,106,89,74,72,68,64,81,54,27,29.97,29.88,6,1,11,0.00
2012-7-7,104,87,74,72,68,63,80,57,27,29.97,29.86,9,1,12,0.00
2012-7-8,91,86,80,72,69,62,64,56,53,30.01,29.93,10,4,22,0.00
2012-7-9,93,81,70,68,60,56,83,52,30,30.05,29.96,12,2,16,0.00
2012-7-10,92,80,66,67,64,60,83,60,37,30.05,29.96,7,2,13,0.05
2012-7-11,91,78,64,64,61,55,87,59,38,30.10,29.99,8,2,11,0.20
2012-7-12,96,82,69,65,61,58,72,52,29,30.04,29.94,8,1,12,0.00
2012-7-13,96,76,67,76,66,63,97,76,35,30.06,29.94,8,1,17,0.73
2012-7-14,94,79,65,73,68,64,99,74,42,30.07,29.96,8,1,9,0.00
2012-7-15,97,82,70,73,69,66,96,68,37,30.08,29.96,5,1,10,0.00
2012-7-16,97,79,73,74,70,67,87,74,43,30.00,29.83,4,0,9,0.00
2012-7-17,100,86,74,73,70,66,87,60,34,29.91,29.80,8,1,12,0.00
2012-7-18,105,88,75,72,68,64,82,56,28,29.92,29.79,7,1,13,0.00
2012-7-19,99,86,74,76,69,61,95,60,29,29.96,29.81,10,2,16,0.09
2012-7-20,86,76,69,70,67,64,88,74,53,30.08,29.96,7,2,12,0.00
2012-7-21,93,80,64,70,64,54,97,62,28,30.10,30.00,8,1,12,0.00
2012-7-22,100,80,71,66,63,60,74,60,28,30.10,29.96,6,1,12,0.00
2012-7-23,105,87,74,71,64,61,73,52,24,30.05,29.95,10,2,11,0.00
2012-7-24,102,86,76,69,67,66,72,55,32,29.94,29.80,5,0,12,0.00
2012-7-25,102,84,77,70,68,64,73,60,29,29.82,29.64,2,0,9,0.00
2012-7-26,88,79,70,71,68,65,96,73,48,29.88,29.65,10,3,16,0.42
2012-7-27,89,76,67,69,64,59,96,71,39,30.01,29.84,10,1,15,0.01
2012-7-28,89,73,62,66,62,60,95,71,39,30.13,30.02,8,0,13,0.00
2012-7-29,92,73,67,74,66,62,98,81,50,30.12,29.88,6,0,10,0.38
2012-7-30,81,74,71,74,70,68,95,88,80,29.92,29.87,2,0,5,0.01
2012-7-31,99,79,67,75,68,66,98,78,37,29.96,29.85,5,1,7,0.00
2012-8-1,97,81,70,70,64,60,81,61,29,29.92,29.80,4,0,8,0.00
2012-8-2,90,76,72,74,62,58,90,62,53,29.81,29.72,4,1,7,0.00
2012-8-3,94,86,72,75,72,70,98,68,47,29.82,29.76,9,3,12,0.00
2012-8-4,98,84,77,75,73,69,90,71,43,29.96,29.76,8,1,10,0.00
2012-8-5,88,78,71,68,62,54,79,62,31,30.13,29.98,10,2,16,0.00
2012-8-6,88,85,80,51,49,48,36,29,25,30.00,29.98,1,0,2,0.00
2012-8-7,88,76,64,64,60,54,80,59,38,29.99,29.91,2,0,9,0.00
2012-8-8,85,78,72,68,61,58,76,57,46,29.94,29.86,2,0,6,0.03
2012-8-9,88,74,65,68,65,62,92,76,49,29.93,29.80,3,1,11,0.00
2012-8-10,80,69,61,56,54,53,77,61,44,30.02,29.98,8,2,13,0.00
2012-8-11,84,71,52,58,50,46,95,54,28,30.08,29.97,8,1,12,0.00
2012-8-12,81,70,62,65,58,48,86,66,53,30.02,29.83,8,2,13,0.07
2012-8-13,73,68,62,64,62,60,91,80,69,30.01,29.82,9,3,16,0.00
2012-8-14,82,69,55,62,58,54,97,73,44,30.04,29.94,6,1,10,0.00
2012-8-15,94,74,55,62,58,54,97,64,32,30.00,29.83,9,2,15,0.00
2012-8-16,88,77,65,70,63,57,76,62,49,30.02,29.80,14,3,19,0.00
2012-8-17,81,66,53,57,50,44,91,61,28,30.08,29.98,7,2,13,0.00
2012-8-18,83,69,51,53,48,44,84,51,26,30.05,29.90,7,1,11,0.00
2012-8-19,83,70,59,54,50,40,77,52,22,29.99,29.92,8,2,12,0.00
2012-8-20,83,65,52,56,52,49,91,67,32,30.03,29.94,9,1,13,0.00
2012-8-21,88,67,58,56,52,46,80,61,27,30.05,29.99,3,0,10,0.00
2012-8-22,95,71,60,59,52,47,75,54,24,30.06,29.95,6,1,9,0.00
2012-8-23,97,76,67,57,54,50,63,48,21,30.06,29.93,3,0,10,0.00
2012-8-24,96,83,68,57,54,51,63,39,23,30.02,29.90,12,2,17,0.00
2012-8-25,94,78,67,69,62,55,83,58,38,29.99,29.89,11,3,23,0.00
2012-8-26,86,75,71,74,71,68,98,90,65,29.99,29.92,8,2,11,0.44
2012-8-27,90,75,68,70,66,60,98,79,37,30.13,29.99,6,1,13,0.01
2012-8-28,91,70,63,66,62,60,96,79,36,30.14,29.99,3,1,9,0.00
2012-8-29,95,80,67,63,60,59,77,53,31,30.05,29.92,9,2,12,0.00
2012-8-30,98,81,67,65,60,55,86,55,25,30.01,29.90,11,2,14,0.00
2012-8-31,79,75,73,73,69,60,98,84,53,30.03,29.85,19,4,19,2.05
2012-9-1,80,74,72,74,73,72,99,95,81,29.84,29.76,6,2,14,0.57
2012-9-2,83,74,69,74,72,68,99,94,74,29.88,29.79,10,2,13,0.05
2012-9-3,92,78,69,74,71,69,99,80,52,29.92,29.85,6,1,9,0.00
2012-9-4,95,79,72,73,71,66,97,80,40,29.91,29.80,4,0,7,0.04
2012-9-5,88,76,66,73,69,64,97,80,57,29.92,29.78,9,1,23,0.51
2012-9-6,89,76,67,69,65,56,96,73,33,29.98,29.85,7,1,9,0.00
2012-9-7,87,72,60,70,65,58,95,82,56,29.97,29.74,13,2,22,0.09
2012-9-8,74,62,53,58,52,49,95,73,41,30.07,29.94,10,3,18,0.01
2012-9-9,68,59,55,54,51,50,83,76,57,30.15,29.93,9,1,17,0.00
2012-9-28,55,55,55,45,45,45,71,71,71,30.16,30.16,0,0,0,0.00
2012-9-29,76,58,45,51,46,43,93,68,33,30.19,30.02,6,1,10,0.00
2012-9-30,75,62,50,53,49,46,89,65,37,30.01,29.87,5,1,8,0.00
2012-10-1,69,58,52,50,47,44,83,67,41,29.89,29.81,6,1,13,0.00
2012-10-2,74,55,46,50,46,43,92,75,34,29.91,29.84,8,1,14,0.00
2012-10-3,75,63,56,57,54,50,91,73,48,30.04,29.92,5,1,9,0.00
2012-10-4,74,56,47,59,52,44,96,86,57,30.25,30.04,12,1,17,0.36
2012-10-5,48,43,36,47,41,34,97,90,69,30.29,30.23,7,1,13,0.45
2012-10-6,47,40,34,35,33,31,93,75,54,30.33,30.25,10,2,15,0.00
2012-10-7,54,42,30,34,31,27,93,67,36,30.33,30.19,9,1,14,0.00
2012-10-8,62,46,33,37,33,29,87,65,36,30.22,30.04,9,1,17,0.00
2012-10-9,68,50,42,48,42,36,95,76,45,30.08,29.90,8,1,21,0.05
2012-10-10,57,45,32,43,34,30,95,70,37,30.31,30.09,11,2,15,0.00
2012-10-11,69,52,38,49,40,32,80,67,43,30.24,30.11,8,1,11,0.00
2012-10-12,62,54,46,47,42,37,80,65,53,30.42,30.22,13,4,18,0.00
2012-10-13,73,62,53,68,60,48,98,92,79,30.21,29.75,12,2,17,2.97
2012-10-14,68,62,51,65,57,46,99,86,65,29.95,29.59,22,4,26,0.25
2012-10-15,71,53,42,48,44,40,94,75,39,30.04,29.93,5,1,9,0.00
2012-10-16,81,62,51,56,48,45,85,63,33,29.93,29.55,12,2,22,0.00
2012-10-17,65,58,51,60,51,44,97,79,53,29.58,29.39,8,2,21,0.41
2012-10-18,55,49,46,44,39,32,91,68,42,29.60,29.54,19,5,26,0.04
2012-10-19,52,48,44,48,44,42,93,88,82,29.82,29.54,12,5,20,0.05
2012-10-20,63,52,47,50,46,44,91,80,60,29.93,29.82,8,2,10,0.00
2012-10-21,80,62,49,66,54,46,89,76,57,29.94,29.84,9,3,13,0.00
2012-10-22,80,71,67,69,66,63,94,83,69,29.91,29.83,14,3,16,0.00
2012-10-23,77,69,64,67,65,61,96,87,71,29.91,29.79,7,2,13,0.26
2012-10-24,83,72,64,69,63,60,87,74,59,29.91,29.80,11,2,17,0.00
2012-10-25,75,59,41,66,53,34,94,81,72,30.24,29.71,18,4,25,0.26
2012-10-26,48,40,33,34,31,28,84,70,53,30.43,30.24,15,3,19,0.00
2012-10-27,46,37,29,32,29,27,92,75,54,30.43,30.31,7,1,12,0.00
2012-10-28,50,39,29,34,30,27,91,73,49,30.38,30.30,8,1,11,0.00
2012-10-31,54,45,39,24,23,22,53,42,28,30.03,29.99,3,1,6,0.00
2012-11-1,66,44,35,44,30,23,71,59,43,30.04,29.90,4,0,10,0.00
2012-11-2,55,44,36,37,34,31,81,67,46,30.11,29.99,7,2,13,0.00
2012-11-3,53,45,38,39,37,34,87,74,58,30.25,30.04,11,3,14,0.01
2012-11-4,47,37,29,38,34,28,97,88,67,30.32,30.18,7,1,11,0.00
2012-11-5,42,41,40,40,39,38,96,92,85,30.18,30.10,11,3,14,0.29
2012-11-6,48,43,40,43,40,38,97,90,75,30.14,29.95,8,1,16,0.02
2012-11-7,47,44,38,40,37,35,87,77,66,30.22,29.99,9,3,17,0.00
2012-11-8,59,42,33,42,36,32,95,82,51,30.23,30.07,8,2,12,0.00
2012-11-12,32,32,32,24,24,24,71,71,71,30.48,30.48,2,1,5,0.00
2012-11-13,50,32,22,29,24,20,93,74,41,30.59,30.47,5,1,7,0.00
2012-11-14,54,38,35,33,27,26,73,66,41,30.52,30.39,4,2,7,0.00
2012-11-15,58,38,33,34,29,26,81,71,39,30.43,30.35,3,1,6,0.00
2012-11-16,60,41,31,41,33,28,93,76,46,30.50,30.43,2,0,5,0.00
2012-11-17,59,42,36,36,32,29,81,69,37,30.53,30.41,10,2,11,0.00
2012-11-18,63,46,38,36,33,30,80,63,30,30.42,30.29,7,3,12,0.00
2012-11-19,55,48,46,48,38,33,89,69,55,30.27,30.14,4,1,10,0.02
2012-11-20,46,46,45,45,45,45,98,98,98,30.25,30.25,0,0,0,0.00
2012-11-21,65,46,34,52,41,33,99,87,56,30.31,30.16,2,0,10,0.01
2012-11-22,70,56,46,55,46,37,85,70,52,30.16,29.85,13,4,21,0.03
2012-11-23,45,40,35,37,30,21,79,69,53,30.35,30.17,14,6,26,0.00
2012-11-24,24,22,19,17,16,15,84,78,75,30.43,30.40,5,2,8,0.00
2012-11-25,49,40,36,31,27,24,64,61,49,30.00,29.94,5,2,11,0.00
2012-11-26,40,34,30,30,27,25,84,75,63,30.38,30.17,7,4,15,0.00
2012-11-27,36,19,16,20,14,12,86,79,52,30.52,30.43,4,0,8,0.00
2012-11-29,46,46,46,34,34,34,64,64,63,30.09,30.09,4,2,6,0.00
2012-11-30,62,49,42,42,36,33,74,62,47,30.11,30.07,4,1,9,0.00
2012-12-1,65,51,45,57,47,41,96,87,76,30.10,29.89,7,2,12,0.00
2012-12-2,64,59,55,57,56,54,97,88,79,30.03,29.90,5,1,8,0.00
2012-12-3,75,65,54,62,59,53,96,82,60,29.97,29.77,14,5,25,0.01
2012-12-4,60,51,40,44,41,33,78,69,39,30.33,30.01,6,2,10,0.00
2012-12-5,50,40,33,37,32,28,85,72,55,30.42,30.17,8,1,10,0.00
2012-12-6,54,42,38,44,37,34,89,82,65,30.16,29.95,6,2,9,0.01
2012-12-7,46,45,44,46,43,42,97,93,87,29.97,29.86,8,1,12,0.01
2012-12-8,42,40,38,42,39,37,98,98,90,30.06,29.90,7,2,10,0.00
2012-12-9,44,41,40,43,40,39,98,96,86,29.98,29.87,12,4,13,0.06
2012-12-10,21,21,21,18,18,18,88,88,88,30.12,30.12,0,0,0,0.00
2012-12-11,42,22,17,25,18,14,92,84,51,30.20,30.11,4,1,10,0.00
2012-12-12,51,32,25,27,22,20,82,69,32,30.35,30.26,7,1,14,0.00
2012-12-13,56,38,31,29,24,21,67,57,35,30.31,30.16,9,1,16,0.00
2012-12-14,56,42,34,33,27,25,69,58,38,30.22,30.01,8,1,12,0.00
2012-12-15,55,46,42,49,44,39,97,93,73,29.92,29.59,11,5,19,0.62
2012-12-16,50,45,42,46,41,38,88,86,82,29.78,29.70,9,4,17,0.00
2012-12-17,39,37,32,35,34,30,94,89,87,29.80,29.75,5,1,9,0.01
2012-12-18,56,37,31,41,33,30,96,88,51,29.85,29.65,15,2,22,0.01
2012-12-19,40,31,29,39,30,27,96,93,86,30.05,29.73,5,1,15,0.00
2012-12-20,47,40,26,46,39,21,98,96,83,29.93,29.23,14,5,37,0.09
2012-12-21,21,21,21,16,16,16,83,83,83,30.37,30.37,0,0,3,0.00
2012-12-22,22,17,15,18,14,13,92,90,83,30.36,30.27,4,1,9,0.00
2012-12-23,36,26,22,27,23,20,93,89,70,30.07,29.98,4,0,7,0.00
2012-12-24,26,24,21,25,21,15,95,88,77,30.24,29.93,9,3,14,0.00
2012-12-25,24,23,22,21,20,18,89,88,85,30.27,30.22,6,1,10,0.00
2012-12-26,21,21,20,18,17,16,85,85,84,30.19,30.16,12,5,18,0.00
2012-12-27,28,21,17,24,18,15,94,90,83,30.28,30.11,2,0,6,0.00
2012-12-28,34,32,30,29,28,28,89,87,82,30.02,29.98,3,1,5,0.00
2012-12-29,30,26,19,28,22,16,92,87,75,30.37,30.04,13,6,18,0.00
2012-12-30,40,22,18,28,18,16,91,85,59,30.45,30.23,2,0,9,0.00
2012-12-31,38,34,21,33,25,17,96,70,55,30.23,30.13,6,1,10,0.00
2013-1-1,21,17,11,17,14,8,88,85,72,30.37,30.23,4,0,9,0.00